www.pogodaiklimat.ru

Погода и климат >> Архив погоды >> Норвегия >> Марстейн


ПОГОДА в Марстейне

  • Прогноз погоды в Марстейне
  • Монитор погоды в Марстейне

АРХИВ ПОГОДЫ в Марстейне

Время (UTC), дата Ветер
(напр.,м/с)
 
Видим.   Явления Облачность Т
(С)
Тd
(С)
f
(%)
Тe
(С)
Тes
(С)
Комфортность P
(гПа)
Po
(гПа)
Тmin
(С)
Tmax
(С)
R
(мм)
R24
(мм)
S
(см)
13 9.06 Ю 3
{7}
н/о н/о +21.5 +3.7 31 +22 +22 комфорт 1005.2 997.7
14 9.06 Ю 1
{6}
н/о н/о +21.7 +5.2 34 +22 +22 комфорт 1005.5 998.0
15 9.06 С 3
{5}
н/о н/о +18.2 +9.8 58 +19 +19 1005.9 998.3
16 9.06 С 2
{8}
н/о н/о +16.4 +10.9 70 +17 +17 1007.3 999.7 0.1
17 9.06 СЗ 3
{5}
н/о н/о +15.4 +11.0 75 +15 +15 1007.9 1000.3
18 9.06 С 2
{8}
н/о н/о +14.4 +10.4 77 +14 +14 1009.2 1001.5 +14.1 +22.4 0.1
19 9.06 СЗ 1
{7}
н/о н/о +13.5 +9.9 79 +14 +14 1009.8 1002.1
20 9.06 С 1
{5}
н/о н/о +12.9 +9.9 82 +13 +13 1010.4 1002.7
21 9.06 С 2
{4}
н/о н/о +12.1 +9.5 84 +11 +11 1010.8 1003.1
22 9.06 С 1
{3}
н/о н/о +11.8 +9.5 86 +12 +12 1011.7 1003.9
23 9.06 С 1
{2}
н/о н/о +11.3 +9.7 90 +11 +11 1012.0 1004.2
00 10.06 С 1
{7}
н/о н/о +11.4 +9.3 87 +11 +11 1012.3 1004.5
01 10.06 С 2
{3}
н/о н/о +11.4 +9.0 85 +10 +10 1012.9 1005.1
02 10.06
{4}
н/о н/о +10.6 +8.7 88 1013.3 1005.5
03 10.06 С 1
{3}
н/о н/о +10.2 +8.6 90 +10 +10 1013.9 1006.1 0.1
04 10.06 З 1
{3}
н/о н/о +10.2 +8.8 91 +10 +10 1014.7 1006.9 0.1
05 10.06 Ю 1
{2}
н/о н/о +10.3 +8.9 91 +10 +10 1015.3 1007.5
06 10.06 С 1
{4}
н/о н/о +11.2 +9.0 86 +11 +11 1015.5 1007.7 +10.0 +14.4 0.2
07 10.06 СВ 1
{2}
н/о н/о +12.6 +9.1 79 +13 +13 1015.5 1007.7
08 10.06 н/о
09 10.06 СЗ 1
{3}
н/о н/о +13.7 +8.1 69 +14 +14 1016.1 1008.4
10 10.06
{3}
н/о н/о +15.3 +7.8 61 1016.4 1008.7
11 10.06 С 2
{4}
н/о н/о +16.5 +6.6 52 +17 +17 1016.7 1009.0
12 10.06 СЗ 3
{4}
н/о н/о +16.4 +4.5 45 +16 +16 1016.7 1009.0
13 10.06 СЗ 2
{5}
н/о н/о +16.4 +5.7 49 +17 +17 1017.0 1009.3
14 10.06 СЗ 3
{5}
н/о н/о +16.7 +4.4 44 +17 +17 1017.3 1009.6
15 10.06 С 2
{5}
н/о н/о +16.3 +5.3 48 +17 +17 1017.6 1009.9
16 10.06 С 3
{6}
н/о н/о +15.2 +5.7 53 +15 +15 1018.1 1010.4
17 10.06 С 3
{8}
н/о н/о +14.9 +6.5 57 +14 +14 1018.6 1010.9
18 10.06 н/о
19 10.06 С 3
{6}
н/о н/о +13.5 +7.5 67 +12 +12 1019.9 1012.1
20 10.06
{6}
н/о н/о +12.5 +7.6 72 1020.5 1012.7
21 10.06 С 1
{4}
н/о н/о +11.5 +7.8 78 +11 +11 1021.3 1013.5
22 10.06 ЮЗ 1
{2}
н/о н/о +9.4 +7.2 86 +9 +9 1022.0 1014.1
23 10.06 штиль 0
{2}
н/о н/о +9.5 +8.0 90 +9 +9 1022.7 1014.8
00 11.06 СЗ 1
{6}
н/о н/о +9.6 +8.0 90 +9 +9 1023.1 1015.2
01 11.06 Ю 1
{2}
н/о н/о +9.1 +7.6 90 +8 +8 1023.3 1015.4
02 11.06 Ю 1
{2}
н/о н/о +9.0 +7.0 87 +8 +8 1023.2 1015.3
03 11.06 ЮВ 1
{4}
н/о н/о +8.6 +6.4 86 +8 +8 1023.6 1015.7
04 11.06 Ю 1
{3}
н/о н/о +8.0 +6.3 89 +7 +7 1024.1 1016.1
05 11.06 н/о
06 11.06 В 1
{5}
н/о н/о +8.6 +6.2 85 +8 +8 1024.5 1016.5 +7.8 +14.2
07 11.06 С 1
{2}
н/о н/о +8.9 +7.4 90 +8 +8 1024.3 1016.4
08 11.06
{2}
н/о н/о +14.2 +6.3 59 1024.2 1016.4
09 11.06 н/о
10 11.06 СЗ 2
{4}
н/о н/о +17.8 +6.7 48 +18 +18 1023.7 1016.0
11 11.06 СЗ 3
{5}
н/о н/о +18.9 +6.7 45 +20 +20 1023.4 1015.7
12 11.06 СЗ 2
{6}
н/о н/о +19.2 +6.0 42 +20 +20 1023.3 1015.6
13 11.06 СЗ 3
{5}
н/о н/о +20.5 +6.1 39 +22 +22 комфорт 1023.0 1015.4
14 11.06 СЗ 3
{5}
н/о н/о +20.8 +5.6 37 +22 +22 комфорт 1023.0 1015.4
15 11.06 СЗ 3
{5}
н/о н/о +20.4 +5.3 37 +21 +21 комфорт 1022.8 1015.2 0.1
16 11.06 СЗ 2
{5}
н/о н/о +20.8 +6.7 40 +22 +22 комфорт 1023.0 1015.4 0.1
17 11.06 СЗ 2
{5}
н/о н/о +19.1 +7.2 46 +20 +20 1023.1 1015.4
18 11.06 С 1
{5}
н/о н/о +17.6 +8.7 56 +19 +19 1023.5 1015.8 +8.3 +21.2 0.3
19 11.06 СЗ 1
{3}
н/о н/о +14.5 +9.5 72 +15 +15 1023.9 1016.1
20 11.06 СЗ 1
{3}
н/о н/о +13.0 +10.0 82 +13 +13 1024.1 1016.3
21 11.06 С 1
{3}
н/о н/о +12.0 +9.2 83 +12 +12 1024.5 1016.6
22 11.06 С 1
{3}
н/о н/о +10.8 +8.7 87 +10 +10 1024.8 1016.9
23 11.06 СЗ 1
{2}
н/о н/о +9.5 +8.1 91 +9 +9 1025.2 1017.3
00 12.06 Ю 1
{3}
н/о н/о +8.5 +7.3 92 +8 +8 1025.3 1017.3
01 12.06 ЮВ 1
{3}
н/о н/о +9.0 +8.1 94 +8 +8 1024.8 1016.9
02 12.06 ЮВ 2
{3}
н/о н/о +10.4 +8.7 89 +9 +9 1024.3 1016.4
03 12.06 ЮВ 2
{4}
н/о н/о +11.6 +8.1 79 +11 +11 1023.7 1015.8
04 12.06 ЮВ 2
{5}
н/о н/о +12.3 +8.2 76 +11 +11 1023.4 1015.6
05 12.06 ЮВ 1
{4}
н/о н/о +12.9 +8.8 76 +13 +13 1023.8 1016.0
06 12.06 ЮВ 3
{9}
н/о н/о +16.2 +7.9 58 +16 +16 1023.5 1015.8 +8.4 +17.6
07 12.06 ЮВ 2
{7}
н/о н/о +16.7 +6.5 51 +17 +17 1023.4 1015.7
08 12.06 ЮВ 4
{9}
н/о н/о +16.7 +6.3 50 +16 +16 1023.1 1015.4
09 12.06 ЮВ 4
{11}
н/о н/о +16.6 +5.3 47 +16 +16 1023.0 1015.3
10 12.06 ЮВ 4
{13}
н/о н/о +16.8 +5.1 46 +16 +16 1022.2 1014.5
11 12.06 н/о
12 12.06 ЮВ 4
{13}
н/о н/о +17.1 +5.4 46 +17 +17 1020.7 1013.0
13 12.06 ЮВ 3
{10}
н/о н/о +17.4 +5.4 45 +17 +17 1020.2 1012.5
14 12.06 ЮВ 2
{8}
н/о н/о +17.6 +5.9 46 +18 +18 1019.5 1011.8
15 12.06 ЮВ 3
{9}
н/о н/о +17.0 +5.9 48 +17 +17 1019.1 1011.4
16 12.06 Ю 3
{8}
н/о н/о +15.7 +5.6 51 +15 +15 1018.8 1011.1
17 12.06 Ю 3
{7}
н/о н/о +15.0 +5.3 52 +14 +14 1018.3 1010.6
18 12.06 Ю 2
{10}
н/о н/о +14.6 +4.6 51 +14 +14 1017.9 1010.2 +14.6 +17.7
19 12.06 ЮВ 2
{6}
н/о н/о +14.9 +4.9 51 +15 +15 1017.1 1009.4
20 12.06 ЮВ 2
{6}
н/о н/о +14.6 +5.2 53 +14 +14 1016.6 1008.9
21 12.06 Ю 3
{8}
н/о н/о +14.5 +5.3 54 +14 +14 1015.8 1008.1
22 12.06 Ю 3
{8}
н/о н/о +14.1 +5.5 56 +13 +13 1015.2 1007.5
23 12.06 Ю 4
{6}
н/о н/о +13.9 +5.8 58 +13 +13 1014.7 1007.0
00 13.06 Ю 3
{10}
н/о н/о +12.4 +6.9 69 +11 +11 1014.2 1006.4
01 13.06 Ю 4
{7}
н/о н/о +11.6 +7.5 76 +9 +9 1013.7 1005.9 0.2
02 13.06 Ю 3
{9}
н/о н/о +10.9 +7.8 81 +9 +9 1012.7 1004.9 0.3
03 13.06 Ю 4
{9}
н/о н/о +12.2 +6.7 69 +10 +10 1011.8 1004.0
04 13.06 Ю 4
{10}
н/о н/о +12.9 +6.3 64 +11 +11 1010.5 1002.8
05 13.06 Ю 6
{8}
н/о н/о +13.0 +6.1 63 +11 +11 1009.5 1001.8
06 13.06 Ю 3
{10}
н/о н/о +11.8 +7.9 77 +10 +10 1008.8 1001.1 +10.8 +15.0 0.9
07 13.06 Ю 2
{8}
н/о н/о +11.4 +9.2 86 +10 +10 1008.0 1000.3 2
08 13.06 ЮВ 4
{10}
н/о н/о +13.7 +8.3 70 +12 +12 1006.9 999.2 0.4
09 13.06 Ю 4
{14}
н/о н/о +16.9 +7.3 53 +16 +16 1006.1 998.5
10 13.06 Ю 3
{11}
н/о н/о +19.1 +7.2 46 +20 +20 1005.5 998.0
11 13.06 ЮВ 4
{11}
н/о н/о +17.8 +7.3 50 +18 +18 1006.0 998.4
12 13.06 ЮВ 6
{15}
н/о н/о +18.2 +7.0 48 +18 +18 1006.8 999.2
13 13.06 Ю 4
{10}
н/о н/о +19.9 +8.9 49 +21 +21 комфорт 1007.1 999.6 0.1
14 13.06 Ю 4
{9}
н/о н/о +21.5 +8.4 43 +23 +23 комфорт 1007.6 1000.1 0.1
15 13.06 Ю 3
{12}
н/о н/о +20.9 +8.2 44 +23 +23 комфорт 1008.3 1000.8
16 13.06 Ю 5
{10}
н/о н/о +19.0 +8.4 50 +19 +19 1009.0 1001.4 0.1
17 13.06 Ю 5
{10}
н/о н/о +18.5 +8.5 52 +19 +19 1009.5 1001.9
18 13.06 Ю 3
{12}
н/о н/о +18.2 +8.2 52 +19 +19 1010.5 1002.9 +11.2 +21.8
19 13.06 Ю 4
{7}
н/о н/о +18.1 +8.7 54 +18 +18 1011.6 1004.0
20 13.06 ЮВ 3
{6}
н/о н/о +17.8 +8.1 53 +18 +18 1012.2 1004.6
21 13.06 Ю 3
{9}
н/о н/о +16.5 +8.2 58 +16 +16 1013.2 1005.5
22 13.06 Ю 1
{5}
н/о н/о +14.5 +8.7 68 +15 +15 1014.1 1006.4
23 13.06 Ю 2
{3}
н/о н/о +12.9 +8.6 75 +12 +12 1014.7 1006.9
00 14.06 Ю 3
{9}
н/о н/о +12.3 +8.6 78 +11 +11 1015.1 1007.3
01 14.06 Ю 3
{6}
н/о н/о +12.0 +8.3 78 +10 +10 1015.3 1007.5
02 14.06 Ю 2
{4}
н/о н/о +11.9 +8.0 77 +11 +11 1015.5 1007.7
03 14.06 Ю 2
{6}
н/о н/о +11.5 +7.8 78 +10 +10 1015.8 1008.0
04 14.06 Ю 4
{6}
н/о н/о +11.7 +7.6 76 +10 +10 1016.3 1008.5
05 14.06 Ю 2
{7}
н/о н/о +11.7 +7.6 76 +11 +11 1016.7 1008.9
06 14.06 Ю 1
{7}
н/о н/о +11.4 +8.1 80 +11 +11 1016.4 1008.6 +11.2 +18.3
07 14.06 штиль 0
{3}
н/о н/о +11.4 +8.8 84 +11 +11 1016.6 1008.8
08 14.06 Ю 2
{4}
н/о н/о +17.5 +8.9 57 +18 +18 1016.4 1008.8
09 14.06 Ю 1
{3}
н/о н/о +20.7 +6.6 40 +23 +23 комфорт 1016.0 1008.4
10 14.06 В 1
{3}
н/о н/о +23.0 +5.0 31 +23 +23 комфорт 1015.5 1008.0
11 14.06 СВ 2
{4}
н/о н/о +23.0 +3.0 27 +23 +23 комфорт 1015.2 1007.7
12 14.06 Ю 2
{4}
н/о н/о +24.0 +2.2 24 +23 +23 комфорт 1015.3 1007.8
13 14.06 СЗ 1
{3}
н/о н/о +23.9 +3.3 26 +23 +23 комфорт 1014.8 1007.3
14 14.06 ЮЗ 2
{3}
н/о н/о +23.5 +5.4 31 +23 +23 комфорт 1014.6 1007.1
15 14.06 Ю 1
{3}
н/о н/о +22.6 +7.6 38 +24 +24 комфорт 1014.1 1006.6
16 14.06 З 1
{3}
н/о н/о +23.6 +8.5 38 +24 +24 комфорт 1014.1 1006.6
17 14.06 СЗ 1
{5}
н/о н/о +18.8 +7.9 49 +20 +20 1014.3 1006.7
18 14.06 С 1
{5}
н/о н/о +21.0 +6.9 40 +23 +23 комфорт 1014.7 1007.2 +11.4 +25.1
19 14.06 ЮВ 1
{3}
н/о н/о +16.4 +9.4 63 +17 +17 1015.1 1007.4
20 14.06 В 1
{3}
н/о н/о +16.8 +9.3 61 +18 +18 1015.8 1008.1
21 14.06 Ю 1
{2}
н/о н/о +15.8 +9.3 65 +17 +17 1016.4 1008.7
22 14.06 СВ 1
{2}
н/о н/о +14.8 +10.0 73 +15 +15 1016.9 1009.2
23 14.06 штиль 0
{2}
н/о н/о +13.0 +9.5 79 +13 +13 1017.4 1009.6
00 15.06 штиль 0
{3}
н/о н/о +10.8 +8.6 86 +10 +10 1017.9 1010.1
01 15.06 ЮВ 1
{2}
н/о н/о +9.9 +8.3 90 +9 +9 1018.7 1010.8
02 15.06 С 1
{3}
н/о н/о +9.4 +8.3 93 +9 +9 1019.0 1011.1
03 15.06 С 1
{1}
н/о н/о +8.7 +7.6 93 +8 +8 1019.5 1011.6
04 15.06 С 1
{1}
н/о н/о +8.6 +7.7 94 +8 +8 1019.6 1011.7
05 15.06 штиль 0
{1}
н/о н/о +8.7 +7.8 94 +8 +8 1020.0 1012.1
06 15.06 С 1
{3}
н/о н/о +9.0 +8.1 94 +8 +8 1019.8 1011.9 +8.4 +21.1
07 15.06
{2}
н/о н/о +9.7 +8.9 95 1020.0 1012.1
08 15.06 С 1
{2}
н/о н/о +16.3 +8.8 61 +17 +17 1019.7 1012.0 0.1
09 15.06 С 2
{4}
н/о н/о +18.9 +8.6 51 +20 +20 1019.1 1011.5
10 15.06 СЗ 3
{6}
н/о н/о +19.5 +9.1 51 +21 +21 комфорт 1018.7 1011.1
11 15.06 СЗ 3
{5}
н/о н/о +20.3 +9.6 50 +22 +22 комфорт 1018.2 1010.6
12 15.06 СЗ 3
{6}
н/о н/о +21.1 +9.1 46 +22 +22 комфорт 1017.6 1010.0
13 15.06 СЗ 2
{5}
н/о н/о +22.1 +9.6 45 +24 +24 комфорт 1017.0 1009.5
14 15.06 СЗ 3
{5}
н/о н/о +22.4 +9.6 44 +24 +24 комфорт 1015.9 1008.4
15 15.06 СЗ 3
{5}
н/о н/о +22.5 +9.7 44 +24 +24 комфорт 1015.3 1007.8
16 15.06 З 2
{5}
н/о н/о +22.6 +10.7 47 +25 +25 комфорт 1014.8 1007.3
17 15.06 З 1
{4}
н/о н/о +19.1 +11.2 60 +21 +21 комфорт 1014.4 1006.8
18 15.06 СЗ 1
{5}
н/о н/о +18.3 +11.4 64 +20 +20 1013.9 1006.3 +9.0 +23.5 0.1
19 15.06 С 1
{2}
н/о н/о +15.5 +11.9 79 +16 +16 1013.7 1006.0
20 15.06 С 1
{2}
н/о н/о +14.4 +11.7 84 +15 +15 1013.8 1006.1
21 15.06 ЮЗ 1
{2}
н/о н/о +13.7 +11.4 86 +14 +14 1014.2 1006.5
22 15.06 Ю 1
{2}
н/о н/о +12.0 +10.3 89 +12 +12 1014.2 1006.4
23 15.06 В 1
{2}
н/о н/о +11.5 +10.4 93 +11 +11 1013.8 1006.0
00 16.06 ЮВ 2
{5}
н/о н/о +13.7 +10.1 79 +13 +13 1013.6 1005.9
01 16.06 ЮВ 2
{4}
н/о н/о +14.0 +9.5 74 +14 +14 1013.5 1005.8
02 16.06 ЮВ 2
{6}
н/о н/о +13.8 +8.9 72 +13 +13 1013.2 1005.5
03 16.06 Ю 3
{6}
н/о н/о +14.1 +8.1 67 +13 +13 1013.1 1005.4
04 16.06 Ю 4
{7}
н/о н/о +13.9 +8.1 68 +13 +13 1013.0 1005.3
05 16.06 Ю 2
{7}
н/о н/о +14.6 +8.6 67 +14 +14 1012.8 1005.1
06 16.06 ЮВ 2
{7}
н/о н/о +15.9 +9.1 64 +16 +16 1012.5 1004.8 +11.2 +18.3
07 16.06 штиль 0
{3}
н/о н/о +17.1 +11.2 68 +17 +17 1011.9 1004.3
08 16.06 С 1
{2}
н/о н/о +19.2 +11.8 62 +21 +21 комфорт 1011.5 1003.9
09 16.06 В 1
{1}
н/о н/о +18.7 +14.2 75 +21 +21 комфорт 1011.2 1003.6
10 16.06 В 1
{3}
н/о н/о +19.6 +14.0 70 +22 +22 комфорт 1011.0 1003.4
11 16.06 Ю 1
{4}
н/о н/о +19.5 +13.0 66 +22 +22 комфорт 1011.4 1003.8 0.1
12 16.06 Ю 2
{6}
н/о н/о +20.3 +12.8 62 +23 +23 комфорт 1011.4 1003.9
13 16.06 В 1
{3}
н/о н/о +19.6 +15.3 76 +23 +23 комфорт 1011.5 1003.9 0.2

 

Местоположение метеостанции Марстейн (Норвегия): широта 62.45 долгота 7.85 высота над уровнем моря 67 м.

В архиве по умолчанию представлена погода в Марстейне за последнюю неделю. Архивные данные за месяц целиком и за предыдущие месяцы, начиная с января 2011 года, Вы можете получить, выбрав интересующий диапазон дат из раскрывающегося списка и нажав кнопку "Ввод!".


*Определитесь, кто Вы:
робот инопланетянин человек

Внимание! Время в таблицах - всемирное. Для получения местного времени необходимо прибавить поправку, которая равна 1 ч.

Смотрите также архив погоды в соседних городах и на ближайших метеорологических станциях:

Погода на Маннене (Норвегия) (4 км)
Погода в Бьорли (Норвегия) (28 км)
Погода в Тафьорде (Норвегия) (33 км)
Погода в Молдэ аэропорту (Норвегия) (45 км)
Погода в Гротли (Норвегия) (49 км)
Погода в Лебергсфелле (Норвегия) (51 км)
Погода в Тингволл-Ханеме (Норвегия) (56 км)
Погода в Рекдале (Норвегия) (60 км)
Погода в Брате (Норвегия) (61 км)
Погода в Кристиансунн аэропорту (Норвегия) (73 км)

Пояснения к столбцам:

Ветер - указаны скорость ветра в м/с - средняя за 10 мин, порывы в срок и между сроками (в фигурных скобках) и направление, откуда дует ветер: С - северный, СВ - северо-восточный, В - восточный, ЮВ - юго-восточный, Ю - южный, ЮЗ - юго-западный, З - западный, СЗ - северо-западный.
Видимость - горизонтальная дальность видимости в метрах или километрах. При видимости от 1 до 10 км при отсутствии осадков обычно наблюдается дымка, при ухудшении видимости до 1 км и менее - туман. В сухую погоду видимость может ухудшаться дымом, пылью или мглою.
Явления - указаны атмосферные явления, наблюдавшиеся в срок или в последний час перед сроком; фигурными скобками обозначены явления, наблюдавшиеся между сроками (за 1-3 часа до срока); квадратными скобками обозначены град или гололедные отложения с указанием их диаметра в мм.
Облачность - указаны через наклонную черту общая и нижняя облачность в баллах и высота нижней границы облаков в метрах; квадратными скобками обозначены формы облаков: Ci - перистые, Cs - перисто-слоистые, Cc - перисто-кучевые, Ac - высококучевые, As - высокослоистые, Sc - слоисто-кучевые, Ns - слоисто-дождевые, Cu - кучевые, Cb - кучево-дождевые. Подробнее классификацию облаков см. в Атласе облаков (PDF).
T - Температура воздуха - температура, измеренная на высоте 2 м над землей.
Td - Температура точки росы - температура, при понижении до которой содержащийся в воздухе водяной пар достигнет насыщения.
f - Относительная влажность воздуха - влажноcть воздуха, измеренная на высоте 2 м над землей.
Te - Эффективная температура - температура, которую ощущает одетый по сезону человек в тени. Характеристика душности погоды. При расчете учитывается влияние влажности воздуха и скорости ветра на теплоощущения человека.
Tes - Эффективная температура на солнце - температура, которую ощущает человек, с поправкой на солнечный нагрев. Характеристика знойности погоды. Зависит от высоты солнца над горизонтом, облачности и скорости ветра. Ночью, в пасмурную погоду, а также при ветре 12 м/с и более поправка равна нулю.
P - Атмосферное давление - приведенное к уровню моря атмосферное давление.
Po - Атмосферное давление - измеренное на уровне метеостанции атмосферное давление.
Tmin - Минимальная температура - минимум температуры воздуха на высоте 2 м над землей.
Tmax - Максимальная температура - максимум температуры воздуха на высоте 2 м над землей.
R - Количество осадков - Количество выпавших осадков за период времени, мм. При наведении курсора мыши на число - период времени, за который выпало указанное количество осадков.
R24 - Количество осадков - Количество выпавших осадков за 24 часа, мм.
S - Снежный покров - Высота снежного покрова, см. При наведении курсора мыши на число - состояние снежного покрова и степень покрытия местности в баллах.